Theta_e
318 319 320 322 324 324 325 325 330 329 328 325 324 325 326 328 328 328 328 329 329 329 329 326 324 321 319 314 311 309 308 308 307 306 305 304 303 302 301 301 301 301 301 301
321 317 318 320 321 323 325 324 324 327 327 325 324 323 324 324 326 326 327 327 327 327 326 325 322 320 318 315 312 309 308 307 306 305 303 303 302 301 301 301 301 300 300 300
327 320 318 322 321 321 323 325 328 330 328 325 325 324 326 323 325 327 327 326 326 326 325 323 321 318 316 313 310 308 307 306 305 303 302 301 300 300 301 301 300 300 300 300
317 325 325 319 318 319 321 322 323 325 326 324 325 324 325 324 325 326 325 325 325 325 323 321 319 317 314 310 308 307 306 305 302 301 300 300 299 300 300 300 300 301 300 298
316 322 323 319 318 320 320 323 323 323 323 321 321 322 324 324 324 325 325 324 324 323 321 320 318 315 311 309 307 306 305 302 300 299 299 299 299 299 299 300 299 298 297 296
315 318 322 323 319 318 321 326 323 323 324 322 322 323 323 324 324 324 325 324 324 322 320 319 316 312 309 308 307 305 302 300 299 299 299 299 299 299 298 298 298 297 296 296
318 319 318 316 319 321 323 328 324 324 325 324 325 326 325 324 323 323 324 325 323 321 320 317 313 310 308 306 305 302 299 298 298 299 299 299 298 297 297 297 297 296 295 295
315 316 320 316 318 325 323 323 324 323 325 327 328 329 326 326 326 324 324 324 322 320 316 312 309 307 305 303 300 299 298 298 298 298 297 297 297 297 297 296 296 295 295 294
315 317 317 321 323 322 323 325 322 322 321 320 322 321 320 321 322 321 321 318 316 314 309 306 305 303 302 301 299 299 298 298 297 296 296 297 297 296 295 295 295 294 293 294
312 317 319 319 320 321 319 318 318 315 318 316 316 314 316 317 316 316 314 312 310 308 306 304 304 302 301 299 298 297 297 296 296 295 296 296 295 295 295 294 294 293 293 293
312 311 316 318 319 321 319 314 311 312 313 313 310 310 311 310 310 310 308 307 306 305 304 303 301 300 298 297 296 295 295 294 294 294 294 293 293 294 293 293 293 293 293 292
309 312 318 319 319 318 317 312 310 310 310 310 307 306 305 306 305 305 305 304 303 302 301 300 299 297 297 296 295 294 294 293 292 292 291 292 292 291 291 289 287 286 286 285
310 309 307 310 320 319 315 311 309 308 309 308 307 305 304 303 304 302 301 301 301 300 300 298 296 296 295 294 294 293 292 292 290 291 291 291 291 290 289 284 284 284 284 284
311 307 314 319 319 318 319 315 310 308 307 306 305 304 304 303 301 301 301 300 300 299 298 297 296 295 294 294 293 292 292 291 290 290 291 290 290 291 292 292 290 288 286 285
309 309 306 308 311 310 309 308 308 306 305 304 304 303 302 302 301 299 298 299 298 297 296 294 293 292 292 291 291 291 291 291 292 291 290 290 289 290 290 290 290 290 290 289
308 310 310 312 315 312 310 306 306 305 304 303 303 302 301 299 297 295 294 294 294 294 292 291 290 290 290 290 290 290 291 291 291 291 290 291 291 290 290 290 290 290 290 290
314 313 311 311 311 308 307 305 305 304 303 302 302 301 300 298 297 293 292 293 292 291 290 290 289 289 288 288 290 291 291 289 291 291 291 290 290 291 291 291 290 290 290 289
312 310 310 308 307 306 306 305 304 302 302 301 300 298 296 295 294 292 291 290 290 290 290 289 287 287 287 289 291 291 291 290 289 290 290 290 291 291 291 291 291 290 290 290
312 311 311 310 307 305 303 302 302 301 299 296 295 295 294 292 291 290 290 290 290 290 288 287 286 287 288 289 290 291 291 291 291 290 290 290 290 290 290 291 291 290 290 289
309 309 306 305 303 303 302 301 300 298 295 294 293 293 292 291 290 290 290 291 291 290 288 286 287 288 289 288 287 290 290 290 290 289 289 290 290 290 290 289 289 289 288 288
304 304 303 304 302 298 297 296 295 295 293 293 293 292 291 290 290 289 291 292 289 289 288 287 288 288 288 288 286 287 289 290 290 290 289 289 288 288 287 287 286 286 286 286
300 297 297 296 296 296 295 294 293 292 292 291 290 290 290 290 291 291 292 290 288 288 290 291 291 291 290 289 291 290 289 288 288 288 287 286 285 285 285 285 285 284 284 284
295 294 294 293 293 292 291 291 291 290 290 290 291 291 292 292 292 293 293 290 290 291 291 288 286 287 286 287 286 286 285 285 285 285 285 284 284 284 283 283 283 283 283 283
293 292 293 292 292 292 292 291 290 290 289 290 291 292 293 292 291 290 288 287 286 287 285 282 280 280 282 283 283 283 283 283 283 283 282 282 282 282 282 282 282 282 281 281
293 292 292 292 292 292 290 290 290 289 289 289 289 290 291 290 289 287 285 282 283 284 282 278 278 277 280 281 281 281 281 281 281 281 281 281 281 281 280 280 280 279 279 279
295 294 293 292 293 293 293 293 293 291 289 288 287 286 285 285 284 284 283 282 282 281 282 281 281 280 280 280 280 280 280 280 280 280 279 279 279 279 279 279 279 278 278 278
294 294 294 294 293 293 293 292 291 290 289 288 286 285 284 283 283 282 282 282 282 281 281 281 281 280 279 279 278 278 278 278 278 278 277 277 277 277 277 277 276 276 276 277
Wind_Speed
28 31 33 31 39 35 32 31 27 34 38 30 22 16 14 15 14 13 14 15 18 19 19 19 29 33 34 34 34 34 32 31 28 25 23 20 16 13 10 8 6 5 4 3
30 33 34 33 35 30 31 29 36 38 36 32 25 25 28 23 21 17 17 19 20 20 21 22 29 33 34 33 33 34 33 31 28 26 23 19 16 13 11 9 7 6 6 5
17 31 34 31 31 33 34 37 35 35 43 14 22 27 28 25 16 18 19 20 21 22 22 22 29 32 33 32 33 33 33 31 28 26 23 19 16 14 12 11 10 9 8 6
10 22 32 20 29 35 33 36 36 37 39 30 31 27 23 25 28 21 19 19 20 20 21 31 34 35 34 34 34 33 33 31 28 26 23 20 17 15 13 11 10 9 7 4
6 14 20 22 30 31 30 38 35 35 35 29 25 23 29 28 25 20 21 22 19 24 28 30 34 34 34 34 33 34 32 30 28 26 23 20 18 16 14 12 10 8 7 5
13 7 14 26 35 25 25 22 30 33 30 26 22 20 26 23 22 24 24 19 17 25 29 32 34 37 35 34 34 31 31 30 28 25 22 19 18 16 14 13 10 8 6 5
15 10 10 23 25 28 26 12 8 19 27 23 19 19 23 21 25 24 20 17 23 26 23 28 34 36 34 33 30 31 30 31 27 23 21 20 18 16 14 12 10 9 7 5
8 13 19 14 19 19 24 19 21 5 5 14 9 9 9 12 15 15 18 16 17 18 23 29 34 34 31 30 31 33 31 30 27 24 21 20 19 16 14 13 12 9 7 5
12 12 17 7 14 18 17 11 5 6 4 5 2 2 3 4 5 4 7 10 18 20 23 27 34 36 33 33 35 33 30 28 26 23 21 19 18 17 15 13 11 9 6 4
8 21 25 25 18 11 11 8 6 6 5 3 2 4 3 4 6 10 12 14 19 24 23 25 30 31 31 32 32 31 29 25 24 23 22 19 18 17 15 13 11 9 7 4
15 20 27 23 17 25 14 10 4 3 2 6 6 6 6 6 9 10 11 15 21 20 22 25 29 29 32 30 32 29 28 23 23 27 22 21 17 15 14 11 10 10 8 5
18 19 17 23 19 25 15 13 8 6 5 5 9 10 10 9 10 12 13 19 20 24 26 28 29 30 29 29 32 34 27 23 23 23 24 18 17 15 13 12 11 9 8 6
24 22 23 23 27 18 19 15 8 2 4 7 10 12 10 11 11 13 18 20 22 24 28 29 30 29 28 28 32 29 25 25 23 21 19 18 16 14 11 10 8 8 8 8
8 4 13 26 13 16 17 11 10 11 9 9 11 13 13 13 10 11 14 22 26 27 27 29 30 28 28 29 27 25 24 25 23 20 18 17 16 14 12 9 8 9 12 11
19 15 12 24 2 7 7 6 10 11 11 11 12 13 13 13 12 9 19 25 29 27 25 25 28 29 28 29 29 29 26 22 20 19 18 16 14 12 10 8 9 8 7 9
17 18 11 21 14 8 10 12 13 11 13 13 13 14 16 19 19 19 21 27 23 15 21 24 24 27 29 30 31 26 20 23 19 16 16 14 12 10 9 10 10 11 12 14
7 6 9 10 12 13 13 11 11 13 14 13 14 17 22 21 21 17 16 15 19 20 22 24 24 29 28 30 21 18 16 17 15 14 12 11 10 11 11 12 13 14 16 19
12 9 4 5 6 7 9 11 11 13 13 16 18 17 13 14 14 15 18 22 23 21 17 22 29 30 26 20 16 15 14 13 12 10 10 11 12 12 13 14 15 16 16 16
14 10 11 12 13 13 12 12 14 14 16 17 16 13 15 18 20 19 20 19 19 17 14 22 27 23 17 17 15 12 10 9 9 10 11 11 11 13 13 14 16 16 17 17
10 9 11 13 12 13 14 14 18 15 19 19 20 16 14 18 20 20 19 14 12 15 18 20 19 16 14 14 15 9 8 9 10 10 9 12 12 12 14 15 16 17 18 19
11 10 13 13 14 14 14 17 17 13 17 18 17 11 16 19 20 22 16 8 14 16 16 18 13 11 10 9 11 9 8 7 5 5 7 8 11 12 12 14 15 16 17 18
13 12 13 15 16 16 18 21 22 23 22 22 21 22 22 19 19 19 15 15 13 15 13 11 10 9 10 10 6 7 5 4 6 5 6 9 11 11 12 12 14 14 16 18
11 13 13 14 16 17 25 23 23 23 22 20 20 19 18 15 14 11 8 11 13 12 12 11 11 10 9 7 4 2 2 4 7 9 11 11 12 13 14 15 15 15 16 17
13 14 15 23 23 18 17 19 25 27 28 26 24 19 17 16 18 17 16 15 16 15 13 10 8 7 6 4 2 0 3 6 8 10 12 13 14 15 17 16 17 17 17 18
12 16 19 15 15 12 21 23 26 25 25 23 21 18 15 12 14 14 13 13 11 9 9 7 6 5 3 2 2 4 7 9 11 13 15 15 16 17 18 18 19 20 21 21
12 11 16 19 17 17 18 19 15 18 18 18 18 18 19 17 16 13 11 10 8 7 5 4 3 3 3 5 7 9 12 15 16 17 18 20 20 21 21 22 22 23 23 23
20 19 19 18 20 19 19 19 18 16 17 17 17 14 14 14 13 11 9 7 5 4 3 3 4 6 8 10 12 15 17 18 18 20 21 22 23 24 24 24 25 26 26 25
Wind_Direction
261 256 248 242 226 231 236 225 235 238 243 247 246 246 219 209 197 192 197 199 195 195 190 191 189 183 184 179 173 168 167 168 166 160 152 151 152 151 150 149 153 165 180 186
253 256 248 244 250 246 235 241 240 245 246 249 259 268 270 251 202 205 195 197 199 195 194 194 191 186 183 180 175 173 172 169 162 153 149 151 150 149 147 150 155 170 176 179
245 241 247 245 240 244 239 238 240 243 246 259 255 248 260 272 246 204 214 205 200 199 196 193 191 185 181 177 172 175 172 164 159 154 152 151 149 151 154 157 157 168 176 188
292 270 240 240 242 243 254 250 244 246 252 249 255 259 261 257 261 209 222 214 211 203 193 193 188 184 178 174 175 174 172 163 157 153 150 151 152 155 157 160 172 176 171 176
237 272 268 243 235 236 233 245 245 259 263 262 265 273 257 249 253 239 211 230 224 208 190 184 179 178 172 172 174 176 168 161 154 150 148 152 155 160 162 163 168 168 172 179
276 264 290 238 240 239 245 247 235 244 255 254 249 248 258 259 248 249 222 213 214 193 190 180 172 173 169 170 175 169 165 155 147 146 150 157 161 164 162 166 164 165 161 161
251 239 252 265 280 247 233 235 215 255 239 233 241 243 255 248 254 245 229 211 213 184 178 178 167 169 166 167 167 160 152 143 142 151 157 157 162 166 166 159 156 154 153 158
233 248 269 231 257 292 229 243 282 325 295 229 254 297 297 280 267 236 228 211 186 162 163 166 163 161 157 160 154 151 150 144 148 153 154 161 166 161 161 154 153 152 155 143
232 243 256 285 307 232 284 248 219 213 208 233 257 310 310 268 175 162 151 135 145 148 145 148 155 158 159 158 156 153 145 144 148 149 160 161 156 155 153 154 156 155 150 135
305 264 254 261 258 261 280 277 300 277 225 158 175 142 174 163 130 133 134 147 144 145 148 152 157 160 163 151 146 144 137 141 148 152 152 149 152 155 154 157 157 153 147 147
258 268 264 244 247 254 239 232 222 275 259 133 151 139 126 130 145 143 137 141 155 151 146 148 154 151 142 149 142 133 132 144 148 149 151 152 153 154 153 156 162 158 159 174
258 266 270 272 240 244 229 226 184 195 223 149 153 152 139 141 139 137 143 143 139 143 148 155 140 141 147 150 143 139 147 153 154 152 154 152 150 147 157 169 171 172 185 204
261 255 258 287 260 221 215 189 159 176 247 205 155 146 148 141 146 135 134 139 145 154 154 140 139 144 152 152 144 154 153 152 152 154 157 150 146 151 159 177 188 204 217 226
244 357 301 249 229 211 207 189 158 159 202 189 153 150 149 148 136 135 150 155 155 154 145 146 149 154 158 151 154 156 152 149 149 153 152 155 160 161 165 171 196 230 234 240
236 234 227 278 239 145 95 107 173 167 166 165 158 146 145 142 136 114 131 141 141 141 143 145 141 146 155 155 156 150 142 144 145 147 153 161 165 171 177 196 215 229 238 252
249 231 230 257 237 189 169 172 163 174 169 159 155 151 144 136 124 116 114 126 133 142 142 137 133 148 156 157 151 142 139 146 147 151 158 165 170 179 196 214 226 234 238 243
212 207 213 211 204 193 182 179 176 165 159 158 151 143 144 142 127 114 113 125 134 132 134 139 141 157 160 160 148 146 146 156 157 162 171 176 189 204 214 222 231 238 244 249
246 166 208 98 114 161 162 181 164 158 158 151 139 128 128 133 134 126 125 127 123 119 133 152 158 160 155 154 152 153 154 162 176 182 191 202 213 221 226 233 238 243 249 250
220 186 187 179 170 172 162 153 154 145 118 116 119 122 124 124 126 124 127 123 123 125 136 151 158 151 154 162 156 156 163 176 188 203 214 224 229 237 245 248 252 255 254 252
197 188 136 134 134 142 146 140 123 119 123 115 112 110 106 108 116 112 115 113 132 135 141 146 147 153 159 176 170 179 190 203 218 229 229 242 249 251 250 254 258 260 258 252
93 115 123 118 95 78 82 98 107 102 105 103 105 102 102 104 108 114 115 104 105 125 137 140 146 151 158 168 183 197 204 210 229 249 254 265 266 267 267 264 264 265 265 257
74 77 82 87 87 84 83 92 94 90 88 90 93 99 100 99 93 73 99 117 121 116 121 128 127 143 149 151 156 156 158 205 234 239 246 261 263 263 266 268 267 267 266 263
82 81 86 86 86 84 74 75 83 93 92 94 99 105 111 118 119 111 103 109 121 123 119 106 125 134 127 111 107 177 231 264 267 265 268 268 265 266 268 269 271 271 270 273
86 84 87 92 91 91 90 86 90 88 87 84 86 94 101 96 80 85 99 110 115 105 101 113 112 105 94 88 86 304 270 267 269 272 271 272 271 269 269 269 269 269 269 267
95 97 98 99 93 93 97 99 92 91 93 92 84 81 88 88 99 102 99 102 99 100 98 93 80 71 61 34 313 286 282 282 280 279 279 278 276 276 274 274 273 272 273 272
93 92 92 93 99 101 102 99 95 99 101 93 84 82 81 86 89 89 89 91 81 77 74 63 46 13 334 311 301 293 287 284 283 279 278 277 276 274 273 274 274 273 272 271
94 94 90 83 79 84 88 95 97 96 94 94 94 88 84 85 87 87 81 71 59 39 6 332 330 322 314 305 295 290 288 287 286 285 285 284 284 283 283 282 280 279 277 275